| time (UTC) | temp C | wind direction | speed KPH | gust KPH | rain 1hr cm | rain 24hr cm | rain mn cm | humidity % | barometer mb |
| 20260503200112 | 22 | 164 | 1.6 | 3.2 | 0.00 | 0.00 | 0.00 | 50 | 1012.6 |
| 20260503195609 | 22 | 164 | 0.0 | 0.0 | 0.00 | 0.00 | 0.00 | 53 | 1012.5 |
| 20260503195106 | 21 | 164 | 0.0 | 1.6 | 0.00 | 0.00 | 0.00 | 53 | 1012.8 |
| 20260503194603 | 21 | 164 | 0.0 | 0.0 | 0.00 | 0.00 | 0.00 | 54 | 1012.8 |
| 20260503194058 | 21 | 164 | 0.0 | 1.6 | 0.00 | 0.00 | 0.00 | 53 | 1012.9 |
| 20260503193555 | 21 | 164 | 0.0 | 0.0 | 0.00 | 0.00 | 0.00 | 55 | 1012.9 |
| 20260503193050 | 21 | 164 | 0.0 | 0.0 | 0.00 | 0.00 | 0.00 | 52 | 1013.1 |
| 20260503192547 | 21 | 164 | 0.0 | 3.2 | 0.00 | 0.00 | 0.00 | 51 | 1013.1 |
| 20260503192043 | 21 | 164 | 0.0 | 8.0 | 0.00 | 0.00 | 0.00 | 53 | 1013.1 |
| 20260503191539 | 21 | 164 | 0.0 | 1.6 | 0.00 | 0.00 | 0.00 | 53 | 1013.1 |
| 20260503191036 | 21 | 164 | 0.0 | 4.8 | 0.00 | 0.00 | 0.00 | 54 | 1013.1 |
| 20260503190533 | 21 | 164 | 0.0 | 0.0 | 0.00 | 0.00 | 0.00 | 57 | 1013.4 |
| 20260503190030 | 20 | 164 | 0.0 | 4.8 | 0.00 | 0.00 | 0.00 | 56 | 1013.4 |
| 20260503185527 | 20 | 164 | 0.0 | 3.2 | 0.00 | 0.00 | 0.00 | 56 | 1013.2 |
| 20260503185021 | 20 | 164 | 0.0 | 0.0 | 0.00 | 0.00 | 0.00 | 57 | 1013.3 |
| 20260503184517 | 20 | 164 | 0.0 | 1.6 | 0.00 | 0.00 | 0.00 | 57 | 1013.6 |
| 20260503184014 | 20 | 164 | 0.0 | 0.0 | 0.00 | 0.00 | 0.00 | 58 | 1013.5 |
| 20260503183510 | 20 | 164 | 0.0 | 0.0 | 0.00 | 0.00 | 0.00 | 58 | 1013.6 |
| 20260503183008 | 20 | 164 | 0.0 | 0.0 | 0.00 | 0.00 | 0.00 | 59 | 1013.5 |
| 20260503182507 | 20 | 164 | 0.0 | 0.0 | 0.00 | 0.00 | 0.00 | 58 | 1013.6 |
| 20260503182004 | 20 | 164 | 0.0 | 0.0 | 0.00 | 0.00 | 0.00 | 57 | 1013.6 |
| 20260503181500 | 20 | 164 | 0.0 | 0.0 | 0.00 | 0.00 | 0.00 | 55 | 1013.6 |
| 20260503180956 | 20 | 164 | 0.0 | 0.0 | 0.00 | 0.00 | 0.00 | 57 | 1013.8 |
| 20260503180454 | 20 | 164 | 0.0 | 0.0 | 0.00 | 0.00 | 0.00 | 59 | 1013.8 |
| 20260503175951 | 20 | 164 | 0.0 | 0.0 | 0.00 | 0.00 | 0.00 | 59 | 1013.8 |
| 20260503175449 | 20 | 164 | 0.0 | 0.0 | 0.00 | 0.00 | 0.00 | 60 | 1013.9 |
| 20260503174738 | 18 | 164 | 0.0 | 0.0 | 0.00 | 0.00 | 0.00 | 65 | 1014.0 |
| 20260503174236 | 18 | 164 | 0.0 | 0.0 | 0.00 | 0.00 | 0.00 | 65 | 1014.0 |
| 20260503173736 | 17 | 164 | 0.0 | 0.0 | 0.00 | 0.00 | 0.00 | 68 | 1013.8 |
| 20260503173232 | 17 | 164 | 0.0 | 0.0 | 0.00 | 0.00 | 0.00 | 66 | 1014.0 |
| 20260503172729 | 17 | 164 | 0.0 | 0.0 | 0.00 | 0.00 | 0.00 | 67 | 1013.8 |
| 20260503172227 | 17 | 164 | 0.0 | 1.6 | 0.00 | 0.00 | 0.00 | 66 | 1014.1 |
| 20260503171723 | 17 | 164 | 0.0 | 1.6 | 0.00 | 0.00 | 0.00 | 67 | 1014.1 |
| 20260503171220 | 17 | 164 | 0.0 | 0.0 | 0.00 | 0.00 | 0.00 | 71 | 1014.0 |
| 20260503170717 | 17 | 164 | 0.0 | 0.0 | 0.00 | 0.00 | 0.00 | 72 | 1014.1 |
| 20260503170214 | 16 | 164 | 0.0 | 0.0 | 0.00 | 0.00 | 0.00 | 71 | 1014.0 |
| 20260503160136 | 17 | 164 | 0.0 | 0.0 | 0.00 | 0.00 | 0.00 | 67 | 1014.0 |
| 20260503150606 | 17 | 164 | 0.0 | 0.0 | 0.00 | 0.00 | 0.00 | 65 | 1014.1 |
| 20260503130955 | 10 | 164 | 0.0 | 0.0 | 0.00 | 0.00 | 0.00 | 88 | 1013.9 |
| 20260503130453 | 10 | 164 | 0.0 | 0.0 | 0.00 | 0.00 | 0.00 | 88 | 1014.0 |
| 20260503110349 | 11 | 165 | 0.0 | 0.0 | 0.00 | 0.00 | 0.00 | 88 | 1014.4 |
| 20260503090241 | 11 | 165 | 0.0 | 0.0 | 0.00 | 0.00 | 0.00 | 89 | 1014.5 |
| 20260503081208 | 12 | 165 | 0.0 | 0.0 | 0.00 | 0.00 | 0.00 | 88 | 1014.7 |
| 20260503080704 | 12 | 165 | 0.0 | 0.0 | 0.00 | 0.00 | 0.00 | 88 | 1014.6 |
| 20260503080201 | 11 | 165 | 0.0 | 0.0 | 0.00 | 0.00 | 0.00 | 87 | 1014.3 |
| 20260503072638 | 12 | 165 | 0.0 | 0.0 | 0.00 | 0.00 | 0.00 | 86 | 1014.3 |
| 20260503072134 | 12 | 165 | 0.0 | 0.0 | 0.00 | 0.00 | 0.00 | 85 | 1014.5 |
| 20260503071631 | 12 | 165 | 0.0 | 0.0 | 0.00 | 0.00 | 0.00 | 85 | 1014.6 |
| 20260503071128 | 12 | 165 | 0.0 | 0.0 | 0.00 | 0.00 | 0.00 | 85 | 1014.5 |
| 20260503070625 | 12 | 165 | 0.0 | 0.0 | 0.00 | 0.00 | 0.00 | 84 | 1014.5 |
| 20260503070123 | 12 | 165 | 0.0 | 0.0 | 0.00 | 0.00 | 0.00 | 83 | 1014.4 |
| 20260503055043 | 13 | 165 | 0.0 | 0.0 | 0.00 | 0.00 | 0.00 | 74 | 1014.2 |
| 20260503054539 | 13 | 165 | 0.0 | 0.0 | 0.00 | 0.00 | 0.00 | 73 | 1014.4 |
| 20260503054037 | 13 | 165 | 0.0 | 0.0 | 0.00 | 0.00 | 0.00 | 71 | 1014.5 |
| 20260503053535 | 13 | 165 | 0.0 | 0.0 | 0.00 | 0.00 | 0.00 | 73 | 1014.5 |
| 20260503053032 | 13 | 165 | 0.0 | 0.0 | 0.00 | 0.00 | 0.00 | 71 | 1014.3 |
| 20260503052529 | 13 | 165 | 0.0 | 0.0 | 0.00 | 0.00 | 0.00 | 71 | 1014.4 |
| 20260503052025 | 13 | 165 | 0.0 | 0.0 | 0.00 | 0.00 | 0.00 | 70 | 1014.4 |
| 20260503051521 | 13 | 165 | 0.0 | 0.0 | 0.00 | 0.00 | 0.00 | 70 | 1014.5 |
| 20260503051019 | 13 | 165 | 0.0 | 0.0 | 0.00 | 0.00 | 0.00 | 71 | 1014.6 |
| 20260503050514 | 13 | 165 | 0.0 | 0.0 | 0.00 | 0.00 | 0.00 | 71 | 1014.5 |
| 20260503050012 | 13 | 165 | 0.0 | 0.0 | 0.00 | 0.00 | 0.00 | 70 | 1014.5 |
| 20260503045509 | 13 | 165 | 0.0 | 0.0 | 0.00 | 0.00 | 0.00 | 70 | 1014.5 |
| 20260503045006 | 14 | 165 | 0.0 | 0.0 | 0.00 | 0.00 | 0.00 | 70 | 1014.2 |
| 20260503044503 | 14 | 164 | 0.0 | 0.0 | 0.00 | 0.00 | 0.00 | 69 | 1014.3 |
| 20260503044000 | 14 | 165 | 0.0 | 0.0 | 0.00 | 0.00 | 0.00 | 70 | 1014.3 |
| 20260503043456 | 14 | 164 | 0.0 | 0.0 | 0.00 | 0.00 | 0.00 | 70 | 1014.3 |
| 20260503042953 | 15 | 164 | 0.0 | 0.0 | 0.00 | 0.00 | 0.00 | 69 | 1014.4 |
| 20260503042450 | 15 | 164 | 0.0 | 0.0 | 0.00 | 0.00 | 0.00 | 69 | 1014.4 |
| 20260503041946 | 15 | 164 | 0.0 | 0.0 | 0.00 | 0.00 | 0.00 | 69 | 1014.0 |
| 20260503041443 | 15 | 164 | 0.0 | 0.0 | 0.00 | 0.00 | 0.00 | 69 | 1014.2 |
| 20260503040941 | 15 | 164 | 0.0 | 0.0 | 0.00 | 0.00 | 0.00 | 69 | 1013.8 |
| 20260503040438 | 15 | 164 | 0.0 | 0.0 | 0.00 | 0.00 | 0.00 | 69 | 1013.9 |
| 20260503035935 | 15 | 164 | 0.0 | 0.0 | 0.00 | 0.00 | 0.00 | 69 | 1014.0 |
| 20260503035432 | 16 | 164 | 0.0 | 0.0 | 0.00 | 0.00 | 0.00 | 68 | 1013.7 |
| 20260503034930 | 16 | 164 | 0.0 | 0.0 | 0.00 | 0.00 | 0.00 | 67 | 1013.8 |
| 20260503034427 | 16 | 164 | 0.0 | 0.0 | 0.00 | 0.00 | 0.00 | 67 | 1013.7 |
| 20260503033924 | 16 | 164 | 0.0 | 0.0 | 0.00 | 0.00 | 0.00 | 65 | 1013.5 |
| 20260503033421 | 17 | 164 | 0.0 | 0.0 | 0.00 | 0.00 | 0.00 | 64 | 1013.5 |
| 20260503032919 | 17 | 164 | 0.0 | 0.0 | 0.00 | 0.00 | 0.00 | 64 | 1013.5 |
| 20260503032417 | 17 | 164 | 0.0 | 0.0 | 0.00 | 0.00 | 0.00 | 65 | 1013.4 |
| 20260503031915 | 17 | 164 | 0.0 | 0.0 | 0.00 | 0.00 | 0.00 | 64 | 1013.5 |
| 20260503031412 | 17 | 164 | 0.0 | 0.0 | 0.00 | 0.00 | 0.00 | 64 | 1013.4 |
| 20260503030909 | 17 | 164 | 0.0 | 0.0 | 0.00 | 0.00 | 0.00 | 63 | 1013.4 |
| 20260503030405 | 18 | 164 | 0.0 | 0.0 | 0.00 | 0.00 | 0.00 | 63 | 1013.5 |
| 20260503025902 | 18 | 164 | 0.0 | 0.0 | 0.00 | 0.00 | 0.00 | 63 | 1013.1 |
| 20260503025359 | 18 | 164 | 0.0 | 0.0 | 0.00 | 0.00 | 0.00 | 62 | 1013.2 |
| 20260503024856 | 18 | 164 | 0.0 | 0.0 | 0.00 | 0.00 | 0.00 | 62 | 1013.3 |
| 20260503024353 | 18 | 164 | 0.0 | 0.0 | 0.00 | 0.00 | 0.00 | 62 | 1013.1 |
| 20260503023850 | 19 | 164 | 0.0 | 0.0 | 0.00 | 0.00 | 0.00 | 61 | 1012.9 |
| 20260503023347 | 19 | 164 | 0.0 | 0.0 | 0.00 | 0.00 | 0.00 | 61 | 1013.0 |
| 20260503022843 | 19 | 164 | 0.0 | 0.0 | 0.00 | 0.00 | 0.00 | 62 | 1012.9 |
| 20260503022338 | 20 | 164 | 0.0 | 0.0 | 0.00 | 0.00 | 0.00 | 61 | 1012.9 |
| 20260503021835 | 20 | 164 | 0.0 | 0.0 | 0.00 | 0.00 | 0.00 | 61 | 1012.9 |
| 20260503021331 | 20 | 164 | 0.0 | 0.0 | 0.00 | 0.00 | 0.00 | 61 | 1013.1 |
| 20260503020828 | 20 | 164 | 0.0 | 0.0 | 0.00 | 0.00 | 0.00 | 60 | 1012.8 |
| 20260503020326 | 20 | 164 | 0.0 | 0.0 | 0.00 | 0.00 | 0.00 | 61 | 1013.2 |
| 20260503015822 | 20 | 164 | 0.0 | 0.0 | 0.00 | 0.00 | 0.00 | 60 | 1013.0 |
| 20260503015319 | 21 | 164 | 0.0 | 0.0 | 0.00 | 0.00 | 0.00 | 59 | 1013.0 |
| 20260503014815 | 21 | 164 | 0.0 | 0.0 | 0.00 | 0.00 | 0.00 | 59 | 1013.0 |
| 20260503014313 | 21 | 164 | 0.0 | 0.0 | 0.00 | 0.00 | 0.00 | 60 | 1013.1 |
| 20260503013810 | 21 | 164 | 0.0 | 0.0 | 0.00 | 0.00 | 0.00 | 58 | 1012.9 |
| 20260503013308 | 22 | 164 | 0.0 | 1.6 | 0.00 | 0.00 | 0.00 | 56 | 1012.9 |
| 20260503012804 | 22 | 164 | 0.0 | 0.0 | 0.00 | 0.00 | 0.00 | 59 | 1013.1 |
| 20260503012305 | 22 | 164 | 0.0 | 0.0 | 0.00 | 0.00 | 0.00 | 57 | 1012.8 |
| 20260503011759 | 22 | 164 | 0.0 | 0.0 | 0.00 | 0.00 | 0.00 | 56 | 1013.0 |
| 20260503011255 | 22 | 164 | 0.0 | 0.0 | 0.00 | 0.00 | 0.00 | 56 | 1012.9 |
| 20260503010752 | 22 | 164 | 0.0 | 0.0 | 0.00 | 0.00 | 0.00 | 57 | 1013.2 |
| 20260503010249 | 22 | 164 | 0.0 | 1.6 | 0.00 | 0.00 | 0.00 | 56 | 1013.0 |
| 20260503005746 | 22 | 164 | 0.0 | 0.0 | 0.00 | 0.00 | 0.00 | 55 | 1013.2 |
| 20260503005243 | 22 | 164 | 0.0 | 0.0 | 0.00 | 0.00 | 0.00 | 57 | 1013.0 |
| 20260503004739 | 22 | 164 | 0.0 | 1.6 | 0.00 | 0.00 | 0.00 | 56 | 1012.8 |
| 20260503004238 | 22 | 164 | 0.0 | 0.0 | 0.00 | 0.00 | 0.00 | 58 | 1013.0 |
| 20260503003734 | 22 | 164 | 0.0 | 0.0 | 0.00 | 0.00 | 0.00 | 57 | 1013.2 |
| 20260503003232 | 22 | 164 | 0.0 | 0.0 | 0.00 | 0.00 | 0.00 | 58 | 1012.9 |
| 20260503002728 | 22 | 164 | 1.6 | 3.2 | 0.00 | 0.00 | 0.00 | 58 | 1013.1 |
| 20260503002225 | 22 | 164 | 0.0 | 0.0 | 0.00 | 0.00 | 0.00 | 59 | 1013.1 |
| 20260503001721 | 22 | 164 | 0.0 | 0.0 | 0.00 | 0.00 | 0.00 | 60 | 1013.1 |
| 20260503001218 | 22 | 164 | 0.0 | 0.0 | 0.00 | 0.00 | 0.00 | 59 | 1013.1 |
| 20260503000716 | 22 | 164 | 0.0 | 1.6 | 0.00 | 0.00 | 0.00 | 58 | 1013.4 |
| 20260503000213 | 22 | 164 | 0.0 | 0.0 | 0.00 | 0.00 | 0.00 | 59 | 1013.4 |
| 20260502235710 | 22 | 164 | 0.0 | 1.6 | 0.00 | 0.00 | 0.00 | 59 | 1012.9 |
| 20260502235208 | 22 | 164 | 0.0 | 1.6 | 0.00 | 0.00 | 0.00 | 59 | 1013.2 |
| 20260502234703 | 21 | 164 | 0.0 | 0.0 | 0.00 | 0.00 | 0.00 | 59 | 1013.2 |
| 20260502234201 | 21 | 164 | 0.0 | 1.6 | 0.00 | 0.00 | 0.00 | 59 | 1013.3 |
| 20260502233656 | 21 | 164 | 0.0 | 0.0 | 0.00 | 0.00 | 0.00 | 60 | 1013.5 |
| 20260502233154 | 21 | 164 | 0.0 | 3.2 | 0.00 | 0.00 | 0.00 | 59 | 1013.6 |
| 20260502232649 | 21 | 164 | 1.6 | 3.2 | 0.00 | 0.00 | 0.00 | 58 | 1013.6 |
| 20260502232147 | 21 | 164 | 0.0 | 0.0 | 0.00 | 0.00 | 0.00 | 61 | 1013.6 |
| 20260502231643 | 21 | 164 | 0.0 | 0.0 | 0.00 | 0.00 | 0.00 | 59 | 1013.7 |
| 20260502231141 | 21 | 164 | 0.0 | 1.6 | 0.00 | 0.00 | 0.00 | 59 | 1013.7 |
| 20260502230640 | 21 | 164 | 0.0 | 0.0 | 0.00 | 0.00 | 0.00 | 61 | 1013.8 |
| 20260502230138 | 21 | 164 | 0.0 | 0.0 | 0.00 | 0.00 | 0.00 | 63 | 1013.9 |
| 20260502225633 | 21 | 164 | 0.0 | 0.0 | 0.00 | 0.00 | 0.00 | 59 | 1014.0 |
| 20260502225131 | 21 | 164 | 0.0 | 0.0 | 0.00 | 0.00 | 0.00 | 60 | 1013.8 |
| 20260502224626 | 21 | 164 | 0.0 | 0.0 | 0.00 | 0.00 | 0.00 | 59 | 1014.4 |
| 20260502224123 | 21 | 164 | 0.0 | 0.0 | 0.00 | 0.00 | 0.00 | 59 | 1014.0 |
| 20260502223621 | 21 | 164 | 0.0 | 0.0 | 0.00 | 0.00 | 0.00 | 59 | 1014.2 |
| 20260502223120 | 21 | 164 | 0.0 | 0.0 | 0.00 | 0.00 | 0.00 | 59 | 1014.4 |
| 20260502222617 | 21 | 164 | 0.0 | 1.6 | 0.00 | 0.00 | 0.00 | 57 | 1014.2 |
| 20260502222113 | 21 | 164 | 0.0 | 0.0 | 0.00 | 0.00 | 0.00 | 59 | 1014.3 |
| 20260502221609 | 21 | 164 | 0.0 | 0.0 | 0.00 | 0.00 | 0.00 | 59 | 1014.5 |
| 20260502221106 | 21 | 164 | 0.0 | 4.8 | 0.00 | 0.00 | 0.00 | 59 | 1014.4 |
| 20260502220602 | 21 | 164 | 0.0 | 0.0 | 0.00 | 0.00 | 0.00 | 58 | 1014.6 |
| 20260502220058 | 21 | 164 | 0.0 | 0.0 | 0.00 | 0.00 | 0.00 | 59 | 1014.5 |
| 20260502215555 | 20 | 164 | 0.0 | 0.0 | 0.00 | 0.00 | 0.00 | 60 | 1014.6 |
| 20260502215052 | 20 | 164 | 0.0 | 0.0 | 0.00 | 0.00 | 0.00 | 59 | 1014.5 |
| 20260502214549 | 20 | 164 | 0.0 | 1.6 | 0.00 | 0.00 | 0.00 | 58 | 1014.7 |
| 20260502214047 | 20 | 164 | 0.0 | 0.0 | 0.00 | 0.00 | 0.00 | 59 | 1014.9 |
| 20260502213543 | 20 | 164 | 0.0 | 1.6 | 0.00 | 0.00 | 0.00 | 59 | 1014.7 |
| 20260502213041 | 20 | 164 | 0.0 | 0.0 | 0.00 | 0.00 | 0.00 | 59 | 1014.8 |
| 20260502212540 | 20 | 164 | 0.0 | 0.0 | 0.00 | 0.00 | 0.00 | 60 | 1014.8 |
| 20260502212037 | 20 | 164 | 0.0 | 3.2 | 0.00 | 0.00 | 0.00 | 59 | 1015.0 |
| 20260502211532 | 20 | 164 | 0.0 | 3.2 | 0.00 | 0.00 | 0.00 | 61 | 1014.8 |
| 20260502211030 | 20 | 164 | 0.0 | 1.6 | 0.00 | 0.00 | 0.00 | 59 | 1014.9 |
| 20260502210527 | 20 | 164 | 0.0 | 3.2 | 0.00 | 0.00 | 0.00 | 60 | 1014.9 |
| 20260502210024 | 19 | 164 | 0.0 | 0.0 | 0.00 | 0.00 | 0.00 | 63 | 1015.2 |
| 20260502205521 | 19 | 164 | 0.0 | 1.6 | 0.00 | 0.00 | 0.00 | 63 | 1015.2 |
| 20260502205018 | 19 | 164 | 0.0 | 0.0 | 0.00 | 0.00 | 0.00 | 63 | 1015.1 |
| 20260502204515 | 19 | 164 | 0.0 | 0.0 | 0.00 | 0.00 | 0.00 | 62 | 1015.1 |
| 20260502204013 | 18 | 164 | 0.0 | 0.0 | 0.00 | 0.00 | 0.00 | 63 | 1015.3 |
| 20260502203509 | 18 | 164 | 0.0 | 3.2 | 0.00 | 0.00 | 0.00 | 62 | 1015.3 |
| 20260502203006 | 18 | 164 | 0.0 | 0.0 | 0.00 | 0.00 | 0.00 | 62 | 1015.4 |
| 20260502202502 | 18 | 164 | 0.0 | 0.0 | 0.00 | 0.00 | 0.00 | 64 | 1015.2 |
| 20260502202001 | 18 | 164 | 0.0 | 1.6 | 0.00 | 0.00 | 0.00 | 63 | 1015.5 |
| 20260502201456 | 18 | 164 | 0.0 | 0.0 | 0.00 | 0.00 | 0.00 | 63 | 1015.5 |
| 20260502200953 | 18 | 164 | 0.0 | 0.0 | 0.00 | 0.00 | 0.00 | 64 | 1015.4 |